Regional Weather Roundup
Issued by NWS

Home | Current Version | Previous Version | Text Only | Print | Product List | Glossary Off
Versions: 1 2 3 4 5 6 7 8 9 10 11 12 13 14 15 16 17 18 19 20 21 22 23 24 25 26 27 28 29 30 31 32 33 34 35 36 37 38 39 40 41 42 43 44 45 46 47 48 49 50

000
ASUS45 KABQ 020410
RWRNM
WEATHER ROUNDUP FOR NEW MEXICO
NATIONAL WEATHER SERVICE ALBUQUERQUE NM
900 PM MST SUN MAR 01 2015

NOTE: "FAIR" MEANS FEW OR NO CLOUDS BELOW 12,000 FEET AGL WITH NO
       SIGNIFICANT WEATHER OR OBSTRUCTIONS TO VISION.

      THIS PRODUCT IS RELEASED AS TWO VERSIONS.  ONE VERSION NEAR
      THE TOP OF THE HOUR CONTAINING PRELIMINARY DATA FROM ALBUQUERQUE
      AND OTHER STATIONS.  A FINAL VERSION WITH ADDITIONAL DATA IS
      ISSUED ABOUT 10 MINUTES AFTER THE HOUR.

NMZ501-503-504-510>518-020500-
NORTHWEST PLATEAU/NORTHCENTRAL MOUNTAINS

CITY           SKY/WX    TMP DP  RH WIND       PRES   REMARKS
FARMINGTON     PTCLDY    38  34  85 E10       30.07S WCI  31
LOS ALAMOS     MOCLDY    41  33  73 S8        30.15S
SANTA FE       CLOUDY    41  30  65 SE18      30.13R
TAOS           PTCLDY    37  28  70 E9        30.12S WCI  31
ANGEL FIRE     FAIR      34  30  88 S13       30.18R WCI  25

$$
NMZ402-403-502-505>509-020500-
WESTCENTRAL MOUNTAINS/SOUTHWEST MOUNTAINS

CITY           SKY/WX    TMP DP  RH WIND       PRES   REMARKS
GALLUP         MOCLDY    43  38  82 S5        30.08R
GRANTS         MOCLDY    37  33  84 CALM      30.12S
SILVER CITY    CLOUDY    54  25  32 W5        30.14R

$$
NMZ407-409-411-412-020500-
SOUTHERN DESERTS

CITY           SKY/WX    TMP DP  RH WIND       PRES   REMARKS
LORDSBURG      FAIR      55  27  33 S3        30.07R
DEMING         CLOUDY    58  24  27 NW5       30.07R
LAS CRUCES     CLOUDY    61  18  19 S8        30.09R
HOLLOMAN AFB   PTCLDY    61  16  17 N13       30.06R
ALAMOGORDO     PTCLDY    57  18  21 S9        30.08R
T OR C         MOCLDY    55  25  31 S3        30.07R

$$
NMZ519>523-020500-
CENTRAL VALLEYS/CENTRAL HIGHLANDS

CITY           SKY/WX    TMP DP  RH WIND       PRES   REMARKS
ALBUQUERQUE    MOCLDY    53  30  41 S13       30.08R
DOUBLE EAGLE   CLEAR     45  36  70 SW10      30.09R
MORIARTY ARPT  FAIR      35  30  80 S5        30.19R WCI  31
CLINES CORNERS FOG       27  26  96 E15       30.19R VSB 1/4 WCI  15
BELEN          FAIR      53  27  36 S12       30.08R
SOCORRO          N/A     51  27  39 SE6       30.07R

$$
NMZ524>526-539-540-020500-
SOUTHCENTRAL MOUNTAINS

CITY           SKY/WX    TMP DP  RH WIND       PRES   REMARKS
RUIDOSO        MIX PCPN  32  32 100 S14       30.23R VSB<1/4 WCI  22

$$
NMZ527>531-020500-
NORTHEAST HIGHLANDS/NORTHEAST PLAINS

CITY           SKY/WX    TMP DP  RH WIND       PRES   REMARKS
LAS VEGAS      FOG       26  25  96 S8        30.21R VSB 1/4 WCI  18
RATON          FOG       27  27 100 SW7       30.21S VSB 1/2 WCI  19
CLAYTON        CLOUDY    25  22  88 SE8       30.29R FOG     WCI  16

$$
NMZ532>537-020500-
EASTCENTRAL PLAINS

CITY           SKY/WX    TMP DP  RH WIND       PRES   REMARKS
TUCUMCARI      CLOUDY    29  27  92 NE14      30.31S FOG     WCI  18
CANNON AFB     FRZ DRZL  30  30  99 E8        30.29S VSB 1   WCI  23
CLOVIS AIRPORT CLOUDY    30  28  93 E9        30.30R VSB 1   WCI  22

$$
NMZ028-029-538-020500-
SOUTHEAST PLAINS

CITY           SKY/WX    TMP DP  RH WIND       PRES   REMARKS
ROSWELL        CLOUDY    38  35  89 N9        30.27R WCI  31
ARTESIA        CLOUDY    36  36 100 N3        30.30R
CARLSBAD       CLOUDY    41  36  82 S7        30.28R
HOBBS          CLOUDY    32  32 100 NE13      30.30R FOG     WCI  22


$$



USA.gov is the U.S. government's official web portal to all federal, state and local government web resources and services.